| time (UTC) | temp F | wind direction | speed MPH | gust MPH | rain 1hr in | rain 24hr in | rain mn in | humidity % | barometer mb |
| 20260509184929 | 86 | 211 | 0.0 | 3.0 | 0.00 | 0.00 | 0.00 | 77 | 1007.0 |
| 20260509184427 | 86 | 197 | 0.0 | 5.0 | 0.00 | 0.00 | 0.00 | 77 | 1007.0 |
| 20260509183923 | 85 | 299 | 3.0 | 3.0 | 0.00 | 0.00 | 0.00 | 76 | 1007.0 |
| 20260509183417 | 86 | 218 | 2.0 | 3.0 | 0.00 | 0.00 | 0.00 | 75 | 1007.0 |
| 20260509182914 | 85 | 201 | 2.0 | 2.0 | 0.00 | 0.00 | 0.00 | 76 | 1007.2 |
| 20260509182411 | 85 | 217 | 1.0 | 1.0 | 0.00 | 0.00 | 0.00 | 77 | 1007.2 |
| 20260509181908 | 85 | 217 | 1.0 | 1.0 | 0.00 | 0.00 | 0.00 | 77 | 1007.5 |
| 20260509181406 | 85 | 217 | 1.0 | 1.0 | 0.00 | 0.00 | 0.00 | 77 | 1007.6 |
| 20260509180903 | 85 | 217 | 1.0 | 1.0 | 0.00 | 0.00 | 0.00 | 77 | 1007.5 |
| 20260509180358 | 86 | 191 | 0.0 | 0.0 | 0.00 | 0.00 | 0.00 | 74 | 1007.8 |
| 20260509175855 | 86 | 191 | 0.0 | 0.0 | 0.00 | 0.00 | 0.00 | 74 | 1007.7 |
| 20260509175351 | 86 | 191 | 0.0 | 0.0 | 0.00 | 0.00 | 0.00 | 74 | 1007.7 |
| 20260509174848 | 86 | 145 | 0.0 | 1.0 | 0.00 | 0.00 | 0.00 | 77 | 1007.7 |
| 20260509174344 | 85 | 213 | 4.0 | 7.0 | 0.00 | 0.00 | 0.00 | 79 | 1007.7 |
| 20260509173840 | 84 | 205 | 3.0 | 5.0 | 0.00 | 0.00 | 0.00 | 81 | 1007.9 |
| 20260509173335 | 84 | 160 | 2.0 | 5.0 | 0.00 | 0.00 | 0.00 | 82 | 1008.0 |
| 20260509172831 | 84 | 210 | 2.0 | 5.0 | 0.00 | 0.00 | 0.00 | 82 | 1008.4 |
| 20260509172328 | 83 | 203 | 3.0 | 3.0 | 0.00 | 0.00 | 0.00 | 82 | 1008.6 |
| 20260509171824 | 83 | 190 | 0.0 | 2.0 | 0.00 | 0.00 | 0.00 | 84 | 1008.4 |
| 20260509171320 | 82 | 183 | 1.0 | 2.0 | 0.00 | 0.00 | 0.00 | 85 | 1008.6 |
| 20260509170817 | 83 | 171 | 2.0 | 3.0 | 0.00 | 0.00 | 0.00 | 88 | 1008.5 |
| 20260509170312 | 82 | 201 | 0.0 | 1.0 | 0.00 | 0.00 | 0.00 | 88 | 1008.6 |
| 20260509165812 | 83 | 210 | 2.0 | 3.0 | 0.00 | 0.00 | 0.00 | 86 | 1008.7 |
| 20260509165307 | 84 | 170 | 0.0 | 2.0 | 0.00 | 0.00 | 0.00 | 87 | 1008.7 |
| 20260509164803 | 82 | 192 | 0.0 | 0.0 | 0.00 | 0.00 | 0.00 | 90 | 1008.5 |
| 20260509164300 | 82 | 161 | 0.0 | 2.0 | 0.00 | 0.00 | 0.00 | 90 | 1008.7 |
| 20260509163756 | 81 | 207 | 3.0 | 5.0 | 0.00 | 0.00 | 0.00 | 90 | 1008.8 |
| 20260509163253 | 81 | 200 | 1.0 | 2.0 | 0.00 | 0.00 | 0.00 | 93 | 1008.4 |
| 20260509162752 | 80 | 187 | 0.0 | 0.0 | 0.00 | 0.00 | 0.00 | 94 | 1008.6 |
| 20260509162245 | 80 | 182 | 0.0 | 1.0 | 0.00 | 0.00 | 0.00 | 94 | 1008.4 |
| 20260509161742 | 80 | 189 | 0.0 | 0.0 | 0.00 | 0.00 | 0.00 | 94 | 1008.5 |
| 20260509161238 | 80 | 171 | 0.0 | 1.0 | 0.00 | 0.00 | 0.00 | 94 | 1008.4 |
| 20260509160733 | 80 | 197 | 0.0 | 1.0 | 0.00 | 0.00 | 0.00 | 95 | 1008.4 |
| 20260509160230 | 80 | 203 | 0.0 | 0.0 | 0.00 | 0.00 | 0.00 | 95 | 1008.4 |
| 20260509155724 | 79 | 188 | 0.0 | 2.0 | 0.00 | 0.00 | 0.00 | 96 | 1008.5 |
| 20260509155221 | 79 | 224 | 0.0 | 1.0 | 0.00 | 0.00 | 0.00 | 96 | 1008.3 |
| 20260509154717 | 79 | 186 | 0.0 | 0.0 | 0.00 | 0.00 | 0.00 | 96 | 1008.2 |
| 20260509154215 | 78 | 181 | 0.0 | 0.0 | 0.00 | 0.00 | 0.00 | 98 | 1008.3 |
| 20260509153712 | 78 | 201 | 2.0 | 2.0 | 0.00 | 0.00 | 0.00 | 98 | 1008.3 |
| 20260509153208 | 78 | 114 | 0.0 | 1.0 | 0.00 | 0.00 | 0.00 | 99 | 1008.1 |
| 20260509152704 | 77 | 202 | 0.0 | 2.0 | 0.00 | 0.00 | 0.00 | 99 | 1008.3 |
| 20260509152201 | 77 | 175 | 1.0 | 1.0 | 0.00 | 0.00 | 0.00 | 99 | 1008.2 |
| 20260509151658 | 77 | 202 | 0.0 | 1.0 | 0.00 | 0.00 | 0.00 | 99 | 1008.5 |
| 20260509151155 | 77 | 191 | 0.0 | 1.0 | 0.00 | 0.00 | 0.00 | 99 | 1008.2 |
| 20260509150653 | 77 | 169 | 1.0 | 1.0 | 0.00 | 0.00 | 0.00 | 99 | 1008.2 |
| 20260509150151 | 77 | 193 | 0.0 | 1.0 | 0.00 | 0.00 | 0.00 | 99 | 1008.2 |
| 20260509145647 | 76 | 175 | 0.0 | 1.0 | 0.00 | 0.00 | 0.00 | 99 | 1008.1 |
| 20260509145142 | 76 | 181 | 0.0 | 0.0 | 0.00 | 0.00 | 0.00 | 99 | 1008.2 |
| 20260509144639 | 76 | 175 | 0.0 | 1.0 | 0.00 | 0.00 | 0.00 | 99 | 1008.1 |
| 20260509144136 | 76 | 180 | 0.0 | 0.0 | 0.00 | 0.00 | 0.00 | 99 | 1008.1 |
| 20260509143633 | 76 | 185 | 0.0 | 0.0 | 0.00 | 0.00 | 0.00 | 99 | 1007.9 |
| 20260509143131 | 76 | 185 | 0.0 | 0.0 | 0.00 | 0.00 | 0.00 | 99 | 1008.0 |
| 20260509142626 | 76 | 176 | 0.0 | 0.0 | 0.00 | 0.00 | 0.00 | 99 | 1007.7 |
| 20260509142123 | 75 | 176 | 0.0 | 0.0 | 0.00 | 0.00 | 0.00 | 99 | 1007.7 |
| 20260509141619 | 75 | 177 | 0.0 | 2.0 | 0.00 | 0.00 | 0.00 | 99 | 1007.3 |
| 20260509141115 | 75 | 159 | 1.0 | 1.0 | 0.00 | 0.00 | 0.00 | 99 | 1007.2 |
| 20260509140612 | 75 | 185 | 0.0 | 0.0 | 0.00 | 0.00 | 0.00 | 99 | 1007.3 |
| 20260509140110 | 75 | 192 | 0.0 | 0.0 | 0.00 | 0.00 | 0.00 | 99 | 1007.2 |
| 20260509135607 | 75 | 185 | 0.0 | 0.0 | 0.00 | 0.00 | 0.00 | 99 | 1007.3 |
| 20260509135105 | 75 | 185 | 0.0 | 0.0 | 0.00 | 0.00 | 0.00 | 99 | 1007.8 |
| 20260509134601 | 75 | 185 | 0.0 | 0.0 | 0.00 | 0.00 | 0.00 | 99 | 1007.8 |
| 20260509134059 | 75 | 191 | 0.0 | 1.0 | 0.00 | 0.00 | 0.00 | 99 | 1007.9 |
| 20260509133556 | 75 | 179 | 0.0 | 0.0 | 0.00 | 0.00 | 0.00 | 99 | 1008.1 |
| 20260509133053 | 75 | 198 | 1.0 | 3.0 | 0.00 | 0.00 | 0.00 | 99 | 1008.2 |
| 20260509132552 | 75 | 178 | 1.0 | 2.0 | 0.00 | 0.00 | 0.00 | 99 | 1008.2 |
| 20260509132050 | 75 | 195 | 0.0 | 0.0 | 0.00 | 0.00 | 0.00 | 99 | 1008.5 |
| 20260509131545 | 75 | 222 | 1.0 | 2.0 | 0.00 | 0.00 | 0.00 | 99 | 1008.6 |
| 20260509131042 | 75 | 184 | 0.0 | 0.0 | 0.00 | 0.00 | 0.00 | 99 | 1008.7 |
| 20260509130537 | 75 | 186 | 1.0 | 1.0 | 0.00 | 0.00 | 0.00 | 99 | 1008.7 |
| 20260509130035 | 75 | 195 | 1.0 | 1.0 | 0.00 | 0.00 | 0.00 | 99 | 1009.0 |
| 20260509125531 | 75 | 211 | 1.0 | 2.0 | 0.00 | 0.00 | 0.00 | 99 | 1008.8 |
| 20260509125028 | 75 | 205 | 0.0 | 0.0 | 0.00 | 0.00 | 0.00 | 99 | 1008.5 |
| 20260509124524 | 75 | 186 | 0.0 | 2.0 | 0.00 | 0.00 | 0.00 | 99 | 1008.1 |
| 20260509124022 | 75 | 182 | 1.0 | 2.0 | 0.00 | 0.00 | 0.00 | 99 | 1008.2 |
| 20260509123520 | 75 | 200 | 0.0 | 0.0 | 0.00 | 0.00 | 0.00 | 99 | 1008.4 |
| 20260509123016 | 74 | 221 | 1.0 | 2.0 | 0.00 | 0.00 | 0.00 | 99 | 1008.5 |
| 20260509122512 | 74 | 219 | 0.0 | 1.0 | 0.00 | 0.00 | 0.00 | 99 | 1008.6 |
| 20260509122009 | 74 | 195 | 0.0 | 0.0 | 0.00 | 0.00 | 0.00 | 99 | 1008.4 |
| 20260509121506 | 74 | 184 | 0.0 | 0.0 | 0.00 | 0.00 | 0.00 | 99 | 1008.5 |
| 20260509121004 | 74 | 169 | 0.0 | 1.0 | 0.00 | 0.00 | 0.00 | 99 | 1008.5 |
| 20260509120502 | 74 | 193 | 0.0 | 0.0 | 0.00 | 0.00 | 0.00 | 99 | 1008.3 |
| 20260509120000 | 74 | 189 | 0.0 | 1.0 | 0.00 | 0.00 | 0.00 | 99 | 1008.6 |
| 20260509115456 | 74 | 202 | 0.0 | 0.0 | 0.00 | 0.00 | 0.00 | 99 | 1008.9 |
| 20260509114954 | 74 | 192 | 0.0 | 0.0 | 0.00 | 0.00 | 0.00 | 99 | 1008.5 |
| 20260509114452 | 74 | 211 | 0.0 | 1.0 | 0.00 | 0.00 | 0.00 | 99 | 1008.0 |
| 20260509113951 | 73 | 192 | 0.0 | 0.0 | 0.00 | 0.00 | 0.00 | 99 | 1008.3 |
| 20260509113448 | 73 | 183 | 0.0 | 0.0 | 0.00 | 0.00 | 0.00 | 99 | 1008.0 |
| 20260509112945 | 73 | 175 | 0.0 | 0.0 | 0.00 | 0.00 | 0.00 | 99 | 1008.1 |
| 20260509112443 | 73 | 174 | 0.0 | 0.0 | 0.00 | 0.00 | 0.00 | 99 | 1008.0 |
| 20260509111939 | 73 | 176 | 0.0 | 0.0 | 0.00 | 0.00 | 0.00 | 99 | 1008.0 |
| 20260509111437 | 73 | 182 | 0.0 | 0.0 | 0.00 | 0.00 | 0.00 | 99 | 1007.8 |
| 20260509110934 | 73 | 190 | 0.0 | 0.0 | 0.00 | 0.00 | 0.00 | 99 | 1007.7 |
| 20260509110429 | 73 | 188 | 0.0 | 0.0 | 0.00 | 0.00 | 0.00 | 99 | 1008.0 |
| 20260509105928 | 73 | 181 | 0.0 | 0.0 | 0.00 | 0.00 | 0.00 | 99 | 1007.8 |
| 20260509105426 | 73 | 189 | 0.0 | 0.0 | 0.00 | 0.00 | 0.00 | 99 | 1008.1 |
| 20260509104923 | 73 | 182 | 0.0 | 0.0 | 0.00 | 0.00 | 0.00 | 99 | 1008.0 |
| 20260509104420 | 73 | 185 | 0.0 | 0.0 | 0.00 | 0.00 | 0.00 | 99 | 1007.8 |
| 20260509103917 | 73 | 182 | 0.0 | 0.0 | 0.00 | 0.00 | 0.00 | 99 | 1007.8 |
| 20260509103414 | 73 | 174 | 0.0 | 0.0 | 0.00 | 0.00 | 0.00 | 99 | 1007.7 |
| 20260509102913 | 73 | 187 | 0.0 | 0.0 | 0.00 | 0.00 | 0.00 | 99 | 1007.7 |
| 20260509102410 | 74 | 187 | 0.0 | 0.0 | 0.00 | 0.00 | 0.00 | 99 | 1007.8 |
| 20260509101905 | 74 | 187 | 0.0 | 0.0 | 0.00 | 0.00 | 0.00 | 99 | 1007.7 |
| 20260509101401 | 74 | 187 | 0.0 | 0.0 | 0.00 | 0.00 | 0.00 | 99 | 1007.8 |
| 20260509100900 | 74 | 188 | 0.0 | 0.0 | 0.00 | 0.00 | 0.00 | 99 | 1007.7 |
| 20260509100356 | 74 | 188 | 0.0 | 0.0 | 0.00 | 0.00 | 0.00 | 99 | 1007.8 |
| 20260509095853 | 74 | 194 | 0.0 | 0.0 | 0.00 | 0.00 | 0.00 | 99 | 1007.7 |
| 20260509095350 | 74 | 186 | 0.0 | 0.0 | 0.00 | 0.00 | 0.00 | 99 | 1007.6 |
| 20260509094847 | 74 | 176 | 0.0 | 0.0 | 0.00 | 0.00 | 0.00 | 99 | 1007.4 |
| 20260509094344 | 74 | 177 | 0.0 | 0.0 | 0.00 | 0.00 | 0.00 | 99 | 1007.1 |
| 20260509093842 | 74 | 178 | 0.0 | 0.0 | 0.00 | 0.00 | 0.00 | 99 | 1007.3 |
| 20260509093338 | 74 | 181 | 0.0 | 0.0 | 0.00 | 0.00 | 0.00 | 99 | 1007.1 |
| 20260509092837 | 74 | 181 | 0.0 | 0.0 | 0.00 | 0.00 | 0.00 | 99 | 1007.2 |
| 20260509092335 | 74 | 186 | 0.0 | 0.0 | 0.00 | 0.00 | 0.00 | 99 | 1007.2 |
| 20260509091832 | 74 | 186 | 0.0 | 0.0 | 0.00 | 0.00 | 0.00 | 99 | 1007.3 |
| 20260509091329 | 74 | 182 | 0.0 | 0.0 | 0.00 | 0.00 | 0.00 | 99 | 1007.3 |
| 20260509090826 | 74 | 186 | 0.0 | 0.0 | 0.00 | 0.00 | 0.00 | 99 | 1007.6 |
| 20260509090323 | 74 | 191 | 0.0 | 0.0 | 0.00 | 0.00 | 0.00 | 99 | 1007.6 |
| 20260509085821 | 74 | 184 | 0.0 | 0.0 | 0.00 | 0.00 | 0.00 | 99 | 1007.6 |
| 20260509085318 | 74 | 184 | 0.0 | 0.0 | 0.00 | 0.00 | 0.00 | 99 | 1007.7 |
| 20260509084814 | 75 | 184 | 0.0 | 0.0 | 0.00 | 0.00 | 0.00 | 99 | 1007.6 |
| 20260509084311 | 75 | 176 | 0.0 | 0.0 | 0.00 | 0.00 | 0.00 | 99 | 1007.5 |
| 20260509083809 | 75 | 174 | 0.0 | 0.0 | 0.00 | 0.00 | 0.00 | 99 | 1007.5 |
| 20260509083306 | 75 | 175 | 0.0 | 0.0 | 0.00 | 0.00 | 0.00 | 99 | 1007.5 |
| 20260509082803 | 75 | 178 | 0.0 | 0.0 | 0.00 | 0.00 | 0.00 | 99 | 1007.2 |
| 20260509082259 | 75 | 166 | 0.0 | 0.0 | 0.00 | 0.00 | 0.00 | 99 | 1007.4 |
| 20260509081756 | 75 | 177 | 0.0 | 1.0 | 0.00 | 0.00 | 0.00 | 99 | 1007.6 |
| 20260509081253 | 75 | 167 | 0.0 | 0.0 | 0.00 | 0.00 | 0.00 | 99 | 1007.5 |
| 20260509080752 | 75 | 166 | 0.0 | 0.0 | 0.00 | 0.00 | 0.00 | 99 | 1007.6 |
| 20260509080249 | 75 | 160 | 0.0 | 0.0 | 0.00 | 0.00 | 0.00 | 99 | 1007.4 |
| 20260509075747 | 75 | 126 | 0.0 | 0.0 | 0.00 | 0.00 | 0.00 | 99 | 1007.4 |
| 20260509075244 | 75 | 158 | 0.0 | 1.0 | 0.00 | 0.00 | 0.00 | 99 | 1007.2 |
| 20260509074741 | 75 | 154 | 1.0 | 3.0 | 0.00 | 0.00 | 0.00 | 99 | 1007.1 |
| 20260509074239 | 75 | 168 | 1.0 | 1.0 | 0.00 | 0.00 | 0.00 | 99 | 1007.1 |
| 20260509073734 | 75 | 163 | 0.0 | 1.0 | 0.00 | 0.00 | 0.00 | 99 | 1007.2 |
| 20260509073231 | 75 | 176 | 0.0 | 1.0 | 0.00 | 0.00 | 0.00 | 99 | 1007.2 |
| 20260509072728 | 75 | 175 | 0.0 | 1.0 | 0.00 | 0.00 | 0.00 | 99 | 1007.4 |
| 20260509072225 | 75 | 181 | 0.0 | 2.0 | 0.00 | 0.00 | 0.00 | 99 | 1007.9 |
| 20260509071721 | 75 | 174 | 1.0 | 1.0 | 0.00 | 0.00 | 0.00 | 99 | 1007.8 |
| 20260509071219 | 75 | 183 | 0.0 | 1.0 | 0.00 | 0.00 | 0.00 | 99 | 1008.0 |
| 20260509070716 | 75 | 182 | 0.0 | 0.0 | 0.00 | 0.00 | 0.00 | 99 | 1008.0 |
| 20260509070212 | 75 | 181 | 0.0 | 0.0 | 0.00 | 0.00 | 0.00 | 99 | 1008.1 |
| 20260509065708 | 75 | 180 | 0.0 | 0.0 | 0.00 | 0.00 | 0.00 | 99 | 1008.2 |
| 20260509065204 | 75 | 185 | 0.0 | 0.0 | 0.00 | 0.00 | 0.00 | 99 | 1008.2 |
| 20260509064701 | 75 | 186 | 0.0 | 0.0 | 0.00 | 0.00 | 0.00 | 99 | 1008.3 |
| 20260509064159 | 75 | 186 | 0.0 | 0.0 | 0.00 | 0.00 | 0.00 | 99 | 1008.4 |
| 20260509063656 | 75 | 175 | 0.0 | 0.0 | 0.00 | 0.00 | 0.00 | 99 | 1008.1 |
| 20260509063152 | 75 | 176 | 0.0 | 0.0 | 0.00 | 0.00 | 0.00 | 99 | 1008.1 |
| 20260509062649 | 75 | 176 | 0.0 | 0.0 | 0.00 | 0.00 | 0.00 | 99 | 1008.0 |
| 20260509062146 | 75 | 177 | 0.0 | 0.0 | 0.00 | 0.00 | 0.00 | 99 | 1007.7 |
| 20260509061643 | 75 | 176 | 0.0 | 1.0 | 0.00 | 0.00 | 0.00 | 99 | 1007.9 |
| 20260509061141 | 75 | 171 | 0.0 | 0.0 | 0.00 | 0.00 | 0.00 | 99 | 1008.3 |
| 20260509060638 | 75 | 172 | 0.0 | 0.0 | 0.00 | 0.00 | 0.00 | 99 | 1008.0 |
| 20260509060134 | 75 | 170 | 0.0 | 2.0 | 0.00 | 0.00 | 0.00 | 99 | 1008.2 |
| 20260509055630 | 75 | 170 | 0.0 | 1.0 | 0.00 | 0.00 | 0.00 | 99 | 1008.2 |
| 20260509055126 | 75 | 180 | 0.0 | 1.0 | 0.00 | 0.00 | 0.00 | 99 | 1008.4 |
| 20260509054623 | 75 | 149 | 0.0 | 0.0 | 0.00 | 0.00 | 0.00 | 99 | 1008.3 |
| 20260509054120 | 75 | 167 | 0.0 | 0.0 | 0.00 | 0.00 | 0.00 | 99 | 1008.3 |
| 20260509053619 | 75 | 171 | 0.0 | 0.0 | 0.00 | 0.00 | 0.00 | 99 | 1008.3 |
| 20260509053115 | 75 | 175 | 0.0 | 1.0 | 0.00 | 0.00 | 0.00 | 99 | 1008.1 |
| 20260509052613 | 75 | 177 | 0.0 | 1.0 | 0.00 | 0.00 | 0.00 | 99 | 1008.5 |
| 20260509052111 | 75 | 173 | 0.0 | 1.0 | 0.00 | 0.00 | 0.00 | 99 | 1008.4 |
| 20260509051608 | 75 | 171 | 0.0 | 0.0 | 0.00 | 0.00 | 0.00 | 99 | 1008.4 |
| 20260509051105 | 75 | 180 | 0.0 | 1.0 | 0.00 | 0.00 | 0.00 | 99 | 1008.4 |
| 20260509050602 | 74 | 171 | 0.0 | 1.0 | 0.00 | 0.00 | 0.00 | 99 | 1008.4 |
| 20260509050058 | 74 | 162 | 0.0 | 0.0 | 0.00 | 0.00 | 0.00 | 99 | 1008.1 |
| 20260509045556 | 74 | 167 | 0.0 | 0.0 | 0.00 | 0.09 | 0.09 | 99 | 1008.4 |
| 20260509045053 | 74 | 182 | 0.0 | 1.0 | 0.00 | 0.09 | 0.09 | 99 | 1008.4 |
| 20260509044550 | 74 | 180 | 0.0 | 0.0 | 0.00 | 0.09 | 0.09 | 99 | 1008.5 |
| 20260509044048 | 74 | 164 | 0.0 | 1.0 | 0.00 | 0.09 | 0.09 | 99 | 1008.3 |
| 20260509043544 | 74 | 164 | 0.0 | 2.0 | 0.00 | 0.09 | 0.09 | 99 | 1008.4 |
| 20260509043039 | 74 | 170 | 0.0 | 1.0 | 0.00 | 0.09 | 0.09 | 99 | 1008.5 |
| 20260509042536 | 74 | 161 | 0.0 | 1.0 | 0.00 | 0.09 | 0.09 | 99 | 1008.4 |
| 20260509042032 | 74 | 149 | 0.0 | 2.0 | 0.00 | 0.09 | 0.09 | 99 | 1008.4 |
| 20260509041529 | 74 | 166 | 0.0 | 1.0 | 0.00 | 0.09 | 0.09 | 99 | 1008.5 |
| 20260509041027 | 74 | 180 | 0.0 | 3.0 | 0.00 | 0.09 | 0.09 | 99 | 1008.5 |
| 20260509040525 | 74 | 152 | 1.0 | 2.0 | 0.00 | 0.09 | 0.09 | 99 | 1008.2 |
| 20260509040021 | 74 | 136 | 0.0 | 1.0 | 0.00 | 0.09 | 0.09 | 99 | 1008.6 |
| 20260509035518 | 74 | 177 | 0.0 | 0.0 | 0.00 | 0.09 | 0.09 | 99 | 1008.3 |
| 20260509035015 | 74 | 159 | 0.0 | 1.0 | 0.00 | 0.09 | 0.09 | 99 | 1008.4 |
| 20260509034513 | 74 | 167 | 0.0 | 1.0 | 0.00 | 0.09 | 0.09 | 99 | 1008.5 |
| 20260509034010 | 74 | 150 | 0.0 | 1.0 | 0.00 | 0.09 | 0.09 | 99 | 1008.3 |
| 20260509033507 | 74 | 170 | 1.0 | 2.0 | 0.00 | 0.09 | 0.09 | 99 | 1008.3 |
| 20260509033004 | 74 | 44 | 1.0 | 1.0 | 0.00 | 0.09 | 0.09 | 99 | 1008.0 |
| 20260509032501 | 74 | 175 | 0.0 | 0.0 | 0.00 | 0.09 | 0.09 | 99 | 1007.9 |
| 20260509031958 | 74 | 181 | 0.0 | 0.0 | 0.00 | 0.09 | 0.09 | 99 | 1007.8 |
| 20260509031455 | 74 | 165 | 0.0 | 3.0 | 0.00 | 0.09 | 0.09 | 99 | 1007.6 |
| 20260509030953 | 74 | 179 | 0.0 | 0.0 | 0.00 | 0.09 | 0.09 | 99 | 1007.7 |
| 20260509030450 | 74 | 161 | 0.0 | 0.0 | 0.00 | 0.09 | 0.09 | 99 | 1007.8 |
| 20260509025947 | 74 | 180 | 0.0 | 1.0 | 0.00 | 0.09 | 0.09 | 99 | 1007.9 |
| 20260509025443 | 74 | 167 | 0.0 | 0.0 | 0.00 | 0.09 | 0.09 | 99 | 1007.8 |
| 20260509024938 | 74 | 328 | 1.0 | 2.0 | 0.00 | 0.09 | 0.09 | 99 | 1008.0 |
| 20260509024435 | 74 | 161 | 0.0 | 1.0 | 0.00 | 0.09 | 0.09 | 99 | 1008.0 |
| 20260509023932 | 74 | 172 | 0.0 | 1.0 | 0.00 | 0.09 | 0.09 | 99 | 1007.7 |
| 20260509023429 | 74 | 179 | 0.0 | 0.0 | 0.00 | 0.09 | 0.09 | 99 | 1007.6 |
| 20260509022926 | 74 | 155 | 0.0 | 0.0 | 0.00 | 0.09 | 0.09 | 99 | 1007.3 |
| 20260509022423 | 74 | 137 | 0.0 | 1.0 | 0.00 | 0.09 | 0.09 | 99 | 1007.4 |
| 20260509021920 | 74 | 177 | 0.0 | 0.0 | 0.00 | 0.09 | 0.09 | 99 | 1007.3 |
| 20260509021417 | 74 | 163 | 0.0 | 0.0 | 0.00 | 0.09 | 0.09 | 99 | 1007.4 |
| 20260509020914 | 74 | 173 | 0.0 | 2.0 | 0.00 | 0.09 | 0.09 | 99 | 1007.0 |
| 20260509020413 | 74 | 185 | 0.0 | 2.0 | 0.00 | 0.09 | 0.09 | 99 | 1006.9 |
| 20260509015909 | 74 | 181 | 0.0 | 1.0 | 0.00 | 0.09 | 0.09 | 99 | 1007.1 |
| 20260509015408 | 74 | 144 | 0.0 | 1.0 | 0.00 | 0.09 | 0.09 | 99 | 1006.8 |
| 20260509014904 | 74 | 172 | 0.0 | 1.0 | 0.00 | 0.09 | 0.09 | 99 | 1007.0 |
| 20260509014401 | 74 | 178 | 0.0 | 0.0 | 0.00 | 0.09 | 0.09 | 99 | 1007.0 |
| 20260509013858 | 74 | 176 | 0.0 | 2.0 | 0.00 | 0.09 | 0.09 | 99 | 1007.1 |
| 20260509013354 | 74 | 179 | 0.0 | 0.0 | 0.00 | 0.09 | 0.09 | 99 | 1007.2 |
| 20260509012850 | 74 | 177 | 0.0 | 1.0 | 0.00 | 0.09 | 0.09 | 99 | 1007.0 |
| 20260509012347 | 74 | 175 | 0.0 | 2.0 | 0.00 | 0.09 | 0.09 | 99 | 1006.7 |
| 20260509011844 | 74 | 168 | 0.0 | 1.0 | 0.00 | 0.09 | 0.09 | 99 | 1006.9 |
| 20260509011342 | 74 | 157 | 0.0 | 0.0 | 0.00 | 0.09 | 0.09 | 99 | 1006.8 |
| 20260509010839 | 74 | 179 | 0.0 | 0.0 | 0.00 | 0.09 | 0.09 | 99 | 1007.1 |
| 20260509010337 | 74 | 107 | 0.0 | 1.0 | 0.00 | 0.09 | 0.09 | 99 | 1006.9 |
| 20260509005833 | 74 | 175 | 0.0 | 1.0 | 0.00 | 0.09 | 0.09 | 99 | 1006.9 |
| 20260509005332 | 74 | 167 | 0.0 | 2.0 | 0.00 | 0.09 | 0.09 | 99 | 1007.0 |
| 20260509004831 | 74 | 168 | 0.0 | 2.0 | 0.00 | 0.09 | 0.09 | 99 | 1006.8 |
| 20260509004328 | 74 | 139 | 1.0 | 2.0 | 0.00 | 0.09 | 0.09 | 99 | 1006.7 |
| 20260509003826 | 74 | 179 | 0.0 | 1.0 | 0.00 | 0.09 | 0.09 | 99 | 1006.7 |
| 20260509003324 | 74 | 138 | 0.0 | 1.0 | 0.00 | 0.09 | 0.09 | 99 | 1006.6 |
| 20260509002820 | 74 | 184 | 0.0 | 2.0 | 0.00 | 0.09 | 0.09 | 99 | 1006.9 |
| 20260509002318 | 74 | 164 | 0.0 | 1.0 | 0.00 | 0.09 | 0.09 | 99 | 1007.0 |
| 20260509001816 | 74 | 180 | 0.0 | 2.0 | 0.00 | 0.09 | 0.09 | 99 | 1006.7 |
| 20260509001311 | 74 | 178 | 1.0 | 2.0 | 0.00 | 0.09 | 0.09 | 99 | 1007.0 |
| 20260509000809 | 74 | 175 | 0.0 | 1.0 | 0.00 | 0.09 | 0.09 | 99 | 1006.7 |
| 20260509000307 | 74 | 297 | 0.0 | 1.0 | 0.00 | 0.09 | 0.09 | 99 | 1006.9 |
| 20260508235803 | 74 | 185 | 0.0 | 3.0 | 0.00 | 0.09 | 0.09 | 99 | 1006.8 |
| 20260508235300 | 74 | 177 | 0.0 | 0.0 | 0.00 | 0.09 | 0.09 | 99 | 1006.8 |
| 20260508234757 | 74 | 160 | 0.0 | 1.0 | 0.00 | 0.09 | 0.09 | 99 | 1006.7 |
| 20260508234253 | 74 | 164 | 1.0 | 3.0 | 0.00 | 0.09 | 0.09 | 99 | 1006.8 |
| 20260508233753 | 74 | 163 | 0.0 | 2.0 | 0.00 | 0.09 | 0.09 | 99 | 1006.5 |
| 20260508233251 | 74 | 128 | 0.0 | 2.0 | 0.00 | 0.09 | 0.09 | 99 | 1006.7 |
| 20260508232748 | 74 | 172 | 0.0 | 1.0 | 0.00 | 0.09 | 0.09 | 99 | 1006.6 |
| 20260508232244 | 74 | 163 | 0.0 | 1.0 | 0.00 | 0.09 | 0.09 | 99 | 1006.9 |
| 20260508231742 | 74 | 166 | 0.0 | 0.0 | 0.00 | 0.09 | 0.09 | 99 | 1007.0 |
| 20260508231238 | 74 | 134 | 0.0 | 0.0 | 0.00 | 0.09 | 0.09 | 99 | 1007.1 |
| 20260508230735 | 74 | 181 | 0.0 | 0.0 | 0.00 | 0.09 | 0.09 | 99 | 1007.1 |
| 20260508230231 | 0 | 0.0 | 0.0 | 0.00 | 0.09 | 0.09 | 1007.1 | ||
| 20260508225730 | 0 | 0.0 | 0.0 | 0.00 | 0.09 | 0.09 | 1007.0 | ||
| 20260508225226 | 0 | 0.0 | 0.0 | 0.00 | 0.09 | 0.09 | 1007.1 | ||
| 20260508224724 | 0 | 0.0 | 0.0 | 0.00 | 0.09 | 0.09 | 1007.1 | ||
| 20260508224221 | 0 | 0.0 | 0.0 | 0.00 | 0.09 | 0.09 | 1007.0 | ||
| 20260508223718 | 0 | 0.0 | 0.0 | 0.00 | 0.09 | 0.09 | 1007.0 | ||
| 20260508223216 | 0 | 0.0 | 0.0 | 0.00 | 0.09 | 0.09 | 1007.0 | ||
| 20260508222713 | 0 | 0.0 | 0.0 | 0.00 | 0.09 | 0.09 | 1007.2 | ||
| 20260508222210 | 0 | 0.0 | 0.0 | 0.00 | 0.09 | 0.09 | 1007.1 | ||
| 20260508221706 | 74 | 156 | 2.0 | 2.0 | 0.00 | 0.09 | 0.09 | 99 | 1007.2 |
| 20260508221202 | 74 | 156 | 2.0 | 2.0 | 0.00 | 0.09 | 0.09 | 99 | 1007.1 |
| 20260508220658 | 74 | 156 | 2.0 | 2.0 | 0.00 | 0.09 | 0.09 | 99 | 1007.2 |
| 20260508220155 | 74 | 156 | 2.0 | 2.0 | 0.00 | 0.09 | 0.09 | 99 | 1007.1 |
| 20260508215652 | 74 | 156 | 2.0 | 2.0 | 0.00 | 0.09 | 0.09 | 99 | 1007.1 |
| 20260508215149 | 74 | 156 | 2.0 | 2.0 | 0.00 | 0.09 | 0.09 | 99 | 1007.0 |
| 20260508214646 | 74 | 156 | 2.0 | 2.0 | 0.00 | 0.09 | 0.09 | 99 | 1007.0 |
| 20260508214143 | 74 | 156 | 2.0 | 2.0 | 0.00 | 0.09 | 0.09 | 99 | 1007.1 |
| 20260508213639 | 74 | 156 | 2.0 | 2.0 | 0.00 | 0.09 | 0.09 | 99 | 1007.2 |
| 20260508213135 | 74 | 156 | 2.0 | 2.0 | 0.00 | 0.09 | 0.09 | 99 | 1007.2 |
| 20260508212632 | 74 | 156 | 2.0 | 2.0 | 0.00 | 0.09 | 0.09 | 99 | 1007.4 |
| 20260508212129 | 74 | 156 | 2.0 | 2.0 | 0.00 | 0.09 | 0.09 | 99 | 1007.6 |
| 20260508211624 | 74 | 123 | 0.0 | 1.0 | 0.00 | 0.09 | 0.09 | 99 | 1007.8 |
| 20260508211121 | 74 | 169 | 1.0 | 2.0 | 0.00 | 0.09 | 0.09 | 99 | 1007.7 |
| 20260508210618 | 74 | 165 | 0.0 | 1.0 | 0.00 | 0.09 | 0.09 | 99 | 1007.6 |
| 20260508210115 | 74 | 79 | 1.0 | 3.0 | 0.00 | 0.09 | 0.09 | 99 | 1007.7 |
| 20260508205612 | 73 | 181 | 0.0 | 2.0 | 0.00 | 0.09 | 0.09 | 99 | 1007.7 |
| 20260508205108 | 73 | 162 | 0.0 | 2.0 | 0.00 | 0.09 | 0.09 | 99 | 1007.7 |
| 20260508204604 | 73 | 182 | 1.0 | 3.0 | 0.00 | 0.09 | 0.09 | 99 | 1007.8 |
| 20260508204101 | 73 | 159 | 2.0 | 3.0 | 0.00 | 0.09 | 0.09 | 99 | 1007.9 |
| 20260508203557 | 73 | 170 | 1.0 | 2.0 | 0.00 | 0.09 | 0.09 | 99 | 1007.8 |
| 20260508203053 | 73 | 176 | 2.0 | 5.0 | 0.00 | 0.09 | 0.09 | 99 | 1007.8 |
| 20260508202550 | 73 | 163 | 1.0 | 2.0 | 0.00 | 0.09 | 0.09 | 99 | 1007.7 |
| 20260508202047 | 72 | 159 | 1.0 | 2.0 | 0.00 | 0.09 | 0.09 | 99 | 1007.8 |
| 20260508201544 | 72 | 151 | 0.0 | 2.0 | 0.00 | 0.09 | 0.09 | 99 | 1008.0 |
| 20260508201040 | 72 | 197 | 0.0 | 1.0 | 0.00 | 0.09 | 0.09 | 99 | 1008.3 |
| 20260508200537 | 72 | 231 | 1.0 | 5.0 | 0.00 | 0.09 | 0.09 | 99 | 1007.8 |
| 20260508200033 | 71 | 175 | 0.0 | 2.0 | 0.00 | 0.09 | 0.09 | 99 | 1008.4 |
| 20260508195530 | 71 | 163 | 1.0 | 3.0 | 0.00 | 0.09 | 0.09 | 99 | 1008.2 |
| 20260508195026 | 71 | 174 | 0.0 | 2.0 | 0.00 | 0.09 | 0.09 | 99 | 1008.5 |
| 20260508194523 | 71 | 144 | 1.0 | 3.0 | 0.00 | 0.09 | 0.09 | 99 | 1008.4 |
| 20260508194020 | 71 | 154 | 0.0 | 1.0 | 0.00 | 0.09 | 0.09 | 99 | 1008.6 |
| 20260508193516 | 71 | 81 | 0.0 | 1.0 | 0.00 | 0.09 | 0.09 | 99 | 1008.5 |
| 20260508193013 | 71 | 184 | 0.0 | 0.0 | 0.00 | 0.09 | 0.09 | 99 | 1008.6 |
| 20260508192510 | 70 | 171 | 0.0 | 0.0 | 0.00 | 0.09 | 0.09 | 99 | 1008.8 |
| 20260508192008 | 70 | 178 | 0.0 | 0.0 | 0.00 | 0.09 | 0.09 | 99 | 1008.9 |
| 20260508191504 | 70 | 171 | 0.0 | 1.0 | 0.00 | 0.09 | 0.09 | 99 | 1008.6 |
| 20260508191001 | 70 | 309 | 0.0 | 1.0 | 0.00 | 0.09 | 0.09 | 99 | 1009.0 |
| 20260508190458 | 70 | 149 | 0.0 | 1.0 | 0.00 | 0.09 | 0.09 | 99 | 1009.2 |
| 20260508185954 | 70 | 186 | 0.0 | 1.0 | 0.00 | 0.09 | 0.09 | 99 | 1009.0 |
| 20260508185452 | 70 | 148 | 0.0 | 1.0 | 0.00 | 0.09 | 0.09 | 99 | 1008.9 |